Location: Brachbach
(49.1847°N, 9.7240°E)
Time: 01:55:02
(UTC+00:00)

ARIANE 6 FM1 Upper Stage - Pass Details

Date: 03 February 2026
Orbit: 522 x 609 km, 62.0° (Epoch: 13 February)

Event Time Altitude Azimuth Distance (km) Brightness Sun altitude
Rises 19:15:41 0° 309° (NW) 2,671 7.0 -28.7°
Reaches altitude 10° 19:18:51 10° 336° (NNW) 1,772 5.5 -29.2°
Enters shadow 19:19:16 11° 342° (NNW) 1,693 5.4 -29.3°
